KD2BVA Weather Reports


Display with metric or nautical units.
time (UTC)temp
F
wind
direction
speed
MPH
gust
MPH
rain 1hr
in
rain 24hr
in
rain mn
in
humidity
%
barometer
mb
20260506170523 47 216 0.0 0.0 0.11 0.74 0.72 97 991.6
20260506170026 47 91 0.0 0.0 0.12 0.73 0.71 97 991.9
20260506165527 47 259 0.0 0.0 0.11 0.71 0.69 97 992.0
20260506165038 48 248 0.0 0.0 0.11 0.70 0.68 97 991.9
20260506164547 48 92 0.0 0.0 0.14 0.70 0.68 97 991.8
20260506164028 48 281 0.0 0.0 0.15 0.69 0.67 97 991.9
20260506163539 48 281 0.0 0.0 0.15 0.68 0.66 97 991.8
20260506163047 48 281 0.0 0.0 0.16 0.67 0.65 97 992.0
20260506162547 48 133 0.0 0.0 0.16 0.65 0.63 97 991.8
20260506162105 48 111 0.0 0.0 0.17 0.65 0.63 97 992.0
20260506161546 48 226 0.0 0.0 0.17 0.63 0.61 97 992.1
20260506161054 48 91 0.0 0.0 0.18 0.63 0.61 97 992.1
20260506160543 49 238 0.0 0.0 0.19 0.62 0.60 97 992.2
20260506160046 49 272 0.0 0.0 0.19 0.61 0.59 97 992.1
20260506155555 49 31 0.0 0.0 0.19 0.60 0.58 97 992.2
20260506155042 49 126 0.0 0.0 0.20 0.59 0.57 97 992.5
20260506154550 48 271 0.0 0.0 0.18 0.56 0.54 97 992.4
20260506154100 48 280 0.0 0.0 0.17 0.54 0.52 97 992.4
20260506153551 48 191 0.0 0.0 0.16 0.52 0.51 97 992.5
20260506153058 48 134 0.0 0.0 0.16 0.51 0.49 97 992.5
20260506152545 48 134 0.0 0.0 0.15 0.49 0.47 97 992.6
20260506152049 49 103 0.0 0.0 0.15 0.48 0.46 97 992.7
20260506151554 49 235 0.0 0.0 0.15 0.46 0.44 97 992.7
20260506151042 49 234 0.0 0.0 0.15 0.45 0.43 97 992.8
20260506150551 49 234 0.0 0.0 0.15 0.43 0.41 97 992.8
20260506150101 49 308 0.0 0.0 0.15 0.42 0.40 97 992.9
20260506145548 49 308 0.0 0.0 0.15 0.41 0.39 96 992.9
20260506145056 49 352 0.0 0.0 0.14 0.39 0.37 97 993.0
20260506144545 49 360 0.0 0.0 0.14 0.38 0.36 97 993.1
20260506144048 49 91 0.0 0.0 0.14 0.37 0.35 96 993.2
20260506143559 50 91 0.0 0.0 0.13 0.36 0.34 96 993.2
20260506143045 50 139 0.0 0.0 0.13 0.35 0.33 96 993.5
20260506142530 50 139 0.0 0.0 0.13 0.34 0.32 97 993.4
20260506142032 51 139 0.0 0.0 0.13 0.33 0.31 97 993.5
20260506141522 51 173 0.0 0.0 0.11 0.31 0.29 97 993.4
20260506141021 51 173 0.0 0.0 0.10 0.29 0.27 97 993.3
20260506140533 51 173 0.0 0.0 0.09 0.28 0.26 97 993.1
20260506140021 51 173 0.0 0.0 0.09 0.27 0.25 97 993.2
20260506135522 51 294 0.0 0.0 0.08 0.26 0.24 97 993.0
20260506135033 51 275 0.0 0.0 0.08 0.25 0.23 97 993.0
20260506134522 51 275 0.0 0.0 0.08 0.24 0.22 97 992.9
20260506134024 52 108 0.0 0.0 0.08 0.23 0.21 97 993.1
20260506133536 52 108 0.0 0.0 0.07 0.22 0.20 97 993.1
20260506133024 52 108 0.0 0.0 0.08 0.22 0.20 97 992.8
20260506132548 52 108 0.0 0.0 0.08 0.21 0.19 97 992.9
20260506132030 52 247 0.0 0.0 0.09 0.20 0.18 97 993.0
20260506131540 52 249 0.0 0.0 0.09 0.20 0.18 97 993.0
20260506131020 52 262 0.0 0.0 0.09 0.19 0.17 97 993.1
20260506130532 52 217 0.0 0.0 0.10 0.19 0.17 97 993.1
20260506130039 52 333 0.0 0.0 0.09 0.18 0.16 97 993.2
20260506125519 53 269 0.0 0.0 0.10 0.18 0.16 97 993.1
20260506125029 53 265 0.0 0.0 0.09 0.17 0.15 97 992.8
20260506124540 53 124 0.0 0.0 0.09 0.16 0.14 97 993.0
20260506124039 53 84 0.0 0.0 0.08 0.15 0.13 97 993.1
20260506123528 53 147 0.0 0.0 0.09 0.15 0.13 97 993.5
20260506123027 53 56 0.0 0.0 0.08 0.14 0.12 97 993.3
20260506122537 53 56 0.0 0.0 0.06 0.12 0.10 97 993.6
20260506122026 53 56 0.0 0.0 0.05 0.11 0.09 97 993.5
20260506121527 53 32 0.0 0.0 0.04 0.10 0.08 97 993.6
20260506121038 53 72 0.0 0.0 0.04 0.10 0.08 97 993.4
20260506120531 54 71 0.0 0.0 0.03 0.09 0.07 97 993.3
20260506120029 54 73 0.0 0.0 0.03 0.09 0.07 97 993.1
20260506115535 54 145 0.0 0.0 0.02 0.08 0.06 97 993.1
20260506115042 54 82 0.0 0.0 0.02 0.08 0.06 97 993.0
20260506114523 54 79 0.0 0.0 0.01 0.07 0.05 98 993.0
20260506114032 54 80 0.0 0.0 0.01 0.07 0.05 98 993.2
20260506113544 54 81 0.0 0.0 0.00 0.06 0.04 98 993.1
20260506113024 54 295 0.0 0.0 0.01 0.06 0.04 98 993.1
20260506112534 54 295 0.0 0.0 0.01 0.06 0.04 98 993.0
20260506112045 54 294 0.0 0.0 0.01 0.06 0.04 98 993.0
20260506111551 54 294 0.0 0.0 0.01 0.06 0.04 98 993.0
20260506111103 54 293 0.0 0.0 0.01 0.06 0.04 98 992.9
20260506110553 54 292 0.0 0.0 0.01 0.06 0.04 98 993.0
20260506105608 54 293 0.0 0.0 0.01 0.06 0.04 98 992.8
20260506105047 54 293 0.0 0.0 0.01 0.06 0.04 98 992.9
20260506104607 54 293 0.0 0.0 0.01 0.06 0.04 98 993.0
20260506104046 54 259 0.0 0.0 0.01 0.06 0.04 98 993.0
20260506103557 54 268 0.0 0.0 0.01 0.06 0.04 98 992.8
20260506103043 54 76 0.0 0.0 0.00 0.05 0.03 98 992.5
20260506102532 54 283 0.0 0.0 0.00 0.05 0.03 98 992.9
20260506102043 54 278 0.0 0.0 0.00 0.05 0.03 98 993.0
20260506101524 54 84 0.0 0.0 0.00 0.05 0.03 98 992.8
20260506101033 54 280 0.0 0.0 0.00 0.05 0.03 98 992.7
20260506100546 54 56 0.0 0.0 0.00 0.05 0.03 98 992.6
20260506100025 54 56 0.0 0.0 0.00 0.05 0.03 97 992.6
20260506095531 54 56 0.0 0.0 0.00 0.05 0.03 97 992.4
20260506095033 54 56 0.0 0.0 0.00 0.05 0.03 97 992.4
20260506094523 54 56 0.0 0.0 0.00 0.05 0.03 98 992.4
20260506094035 54 70 0.0 0.0 0.00 0.05 0.03 98 992.5
20260506093534 54 74 0.0 0.0 0.00 0.05 0.03 98 992.5
20260506093022 54 75 0.0 0.0 0.00 0.05 0.03 98 992.6
20260506092533 54 75 0.0 0.0 0.00 0.05 0.03 98 992.6
20260506092032 54 75 0.0 0.0 0.00 0.05 0.03 98 992.5
20260506091521 54 74 0.0 0.0 0.00 0.05 0.03 98 992.6
20260506091022 54 75 0.0 0.0 0.00 0.05 0.03 97 992.7
20260506090534 54 75 0.0 1.0 0.00 0.05 0.03 97 992.8
20260506090022 54 74 0.0 0.0 0.00 0.05 0.03 97 992.8
20260506085524 54 75 0.0 0.0 0.00 0.05 0.03 97 992.7
20260506085033 53 75 0.0 0.0 0.00 0.05 0.03 97 992.7
20260506084524 53 75 0.0 0.0 0.00 0.05 0.03 97 992.9
20260506084023 53 75 0.0 0.0 0.00 0.05 0.03 97 992.9
20260506083533 54 75 0.0 0.0 0.00 0.05 0.03 97 992.9
20260506083041 54 75 0.0 0.0 0.00 0.05 0.03 97 993.0
20260506082522 54 75 0.0 1.0 0.00 0.05 0.03 97 993.0
20260506082046 54 75 0.0 1.0 0.00 0.05 0.03 97 993.1
20260506081556 54 75 0.0 0.0 0.00 0.05 0.03 97 993.2
20260506081043 54 75 0.0 0.0 0.00 0.05 0.03 97 993.2
20260506080553 54 75 0.0 0.0 0.00 0.05 0.03 97 993.0
20260506073041 54 75 0.0 0.0 0.00 0.05 0.03 96 993.5
20260506072551 55 75 0.0 0.0 0.00 0.05 0.03 96 993.5
20260506072100 55 75 0.0 0.0 0.00 0.05 0.03 96 993.5
20260506071529 55 74 0.0 0.0 0.00 0.05 0.03 96 993.2
20260506071028 55 75 0.0 0.0 0.00 0.05 0.03 96 993.2
20260506070540 55 75 0.0 0.0 0.00 0.05 0.03 96 993.1
20260506062036 56 74 0.0 0.0 0.02 0.05 0.03 95 993.6
20260506061539 56 75 0.0 0.0 0.02 0.05 0.03 95 993.5
20260506061025 56 75 0.0 0.0 0.02 0.05 0.03 95 993.6
20260506060537 56 75 0.0 0.0 0.02 0.05 0.03 94 993.6
20260506051039 59 1 0.0 1.0 0.01 0.03 0.01 89 993.4
20260506050522 59 46 0.0 1.0 0.01 0.03 0.01 87 993.4
20260506045047 61 46 0.0 0.0 0.01 0.03 0.01 83 993.7
20260506044525 62 307 0.0 0.0 0.01 0.03 0.01 80 993.9
20260506044037 62 301 0.0 0.0 0.00 0.02 0.00 78 994.0
20260506043528 62 76 0.0 0.0 0.00 0.02 0.00 79 993.9
20260506043027 62 278 0.0 0.0 0.00 0.02 0.00 80 993.9
20260506042537 61 276 0.0 1.0 0.00 0.02 0.00 81 993.7
20260506042026 61 127 0.0 0.0 0.00 0.02 0.00 84 993.7
20260506041527 61 74 0.0 0.0 0.00 0.02 0.00 85 993.7
20260506041038 61 311 0.0 0.0 0.00 0.02 0.00 84 993.5
20260506040549 61 306 0.0 0.0 0.00 0.02 0.00 84 993.4
20260506040051 61 306 0.0 0.0 0.00 0.02 0.02 85 993.5
20260506035559 61 306 0.0 1.0 0.00 0.02 0.02 85 993.5
20260506035043 61 306 0.0 1.0 0.00 0.02 0.02 86 993.6
20260506034551 61 99 0.0 1.0 0.00 0.02 0.02 86 993.5
20260506034059 61 98 0.0 1.0 0.00 0.02 0.02 87 993.4
20260506033548 61 99 0.0 1.0 0.00 0.02 0.02 88 993.4
20260506033055 60 75 0.0 0.0 0.00 0.02 0.02 89 993.4
20260506032543 60 75 0.0 0.0 0.00 0.02 0.02 89 993.4
20260506032047 60 75 0.0 1.0 0.00 0.02 0.02 89 993.4
20260506031556 60 74 0.0 1.0 0.00 0.02 0.02 89 993.4
20260506031043 60 74 0.0 0.0 0.00 0.02 0.02 89 993.3
20260506030521 60 74 0.0 0.0 0.00 0.02 0.02 89 993.2
20260506030029 60 74 0.0 0.0 0.00 0.02 0.02 89 993.1
20260506025539 60 74 0.0 0.0 0.00 0.02 0.02 89 993.1
20260506025020 60 74 0.0 0.0 0.00 0.02 0.02 89 993.1
20260506024530 60 108 0.0 1.0 0.00 0.02 0.02 89 993.1
20260506024040 60 108 0.0 1.0 0.00 0.02 0.02 89 993.0
20260506023522 60 108 0.0 1.0 0.00 0.02 0.02 89 992.9
20260506023029 60 50 0.0 1.0 0.00 0.02 0.02 89 992.9
20260506022538 60 50 0.0 0.0 0.00 0.02 0.02 88 992.9
20260506022038 60 50 0.0 0.0 0.00 0.02 0.02 88 992.9
20260506021528 60 50 0.0 1.0 0.00 0.02 0.02 88 993.0
20260506021038 61 49 0.0 1.0 0.00 0.02 0.02 88 992.8
20260506020537 61 48 0.0 1.0 0.00 0.02 0.02 88 992.7
20260506020044 61 48 0.0 0.0 0.00 0.02 0.02 86 992.5
20260506015548 61 48 0.0 0.0 0.00 0.02 0.02 86 992.5
20260506015057 61 49 0.0 0.0 0.00 0.02 0.02 86 992.6
20260506014545 62 49 0.0 1.0 0.00 0.02 0.02 85 992.5
20260506014053 62 49 0.0 1.0 0.00 0.02 0.02 84 992.4
20260506013602 62 49 0.0 1.0 0.00 0.02 0.02 83 992.3
20260506013048 63 49 0.0 1.0 0.00 0.02 0.02 83 992.2
20260506012552 63 55 0.0 1.0 0.00 0.02 0.02 81 992.2
20260506012100 64 54 0.0 0.0 0.00 0.02 0.02 80 992.3
20260506011548 64 55 0.0 1.0 0.00 0.02 0.02 77 992.3
20260506011020 64 55 0.0 2.0 0.00 0.02 0.02 76 992.3
20260506010523 64 129 0.0 2.0 0.00 0.02 0.02 76 992.3
20260506010032 64 131 0.0 2.0 0.00 0.02 0.02 76 992.1
20260506005521 63 218 0.0 2.0 0.00 0.02 0.02 76 991.8
20260506005022 63 249 0.0 2.0 0.00 0.02 0.02 76 991.6
20260506004532 63 233 0.0 2.0 0.00 0.02 0.02 75 991.8
20260506004043 63 233 0.0 2.0 0.00 0.02 0.02 76 991.7
20260506003526 63 98 0.0 1.0 0.00 0.02 0.02 76 991.5
20260506003036 63 121 0.0 3.0 0.00 0.02 0.02 75 991.4
20260506002545 63 237 2.0 3.0 0.00 0.02 0.02 75 991.4
20260506002026 64 217 0.0 1.0 0.00 0.02 0.02 74 991.4
20260506001537 64 214 0.0 1.0 0.00 0.02 0.02 72 991.4
20260506001043 65 214 0.0 1.0 0.00 0.02 0.02 71 991.4
20260506000525 66 214 0.0 1.0 0.00 0.02 0.02 70 991.4
20260506000031 67 214 0.0 1.0 0.00 0.02 0.02 68 991.3
20260505235532 67 225 0.0 3.0 0.00 0.02 0.02 66 991.3
20260505235022 67 243 0.0 7.0 0.00 0.02 0.02 65 991.2
20260505234532 67 207 2.0 7.0 0.00 0.02 0.02 65 991.1
20260505234031 67 191 1.0 2.0 0.00 0.02 0.02 65 991.0
20260505233522 68 210 0.0 2.0 0.00 0.02 0.02 64 990.9
20260505233030 68 252 0.0 1.0 0.00 0.02 0.02 64 990.8
20260505232531 68 131 0.0 1.0 0.00 0.02 0.02 64 990.8
20260505232020 68 131 0.0 4.0 0.00 0.02 0.02 64 990.7
20260505231521 68 285 1.0 5.0 0.00 0.02 0.02 63 990.6
20260505231031 68 255 0.0 4.0 0.00 0.02 0.02 63 990.6
20260505230522 68 241 1.0 8.0 0.00 0.02 0.02 63 990.6
20260505230022 68 281 2.0 8.0 0.00 0.02 0.02 63 990.7
20260505225533 68 144 1.0 4.0 0.00 0.02 0.02 63 990.7
20260505225042 68 37 2.0 7.0 0.00 0.02 0.02 64 990.8
20260505224522 68 231 2.0 10.0 0.00 0.02 0.02 64 990.7
20260505224032 68 244 3.0 14.0 0.00 0.02 0.02 63 990.6
20260505223539 68 181 3.0 17.0 0.00 0.02 0.02 64 990.7
20260505223039 68 311 4.0 17.0 0.00 0.02 0.02 64 990.6
20260505222528 69 200 3.0 14.0 0.00 0.02 0.02 63 990.6
20260505222038 69 310 4.0 14.0 0.00 0.02 0.02 61 990.6
20260505221538 69 107 3.0 9.0 0.00 0.02 0.02 60 990.1
20260505221028 69 237 2.0 10.0 0.00 0.02 0.02 61 990.0
20260505220540 68 122 3.0 10.0 0.00 0.02 0.02 62 989.9
20260505220038 68 202 4.0 12.0 0.00 0.02 0.02 62 989.8
20260505215529 68 248 3.0 12.0 0.00 0.02 0.02 62 989.9
20260505215030 68 69 3.0 10.0 0.00 0.02 0.02 64 989.9
20260505214520 67 228 2.0 13.0 0.00 0.02 0.02 65 989.7
20260505214031 67 254 5.0 14.0 0.00 0.02 0.02 66 989.8
20260505213533 67 222 3.0 14.0 0.00 0.02 0.02 67 989.6
20260505213021 68 94 1.0 11.0 0.00 0.02 0.02 67 989.6
20260505212522 68 328 2.0 10.0 0.00 0.02 0.02 67 990.1
20260505212033 68 255 3.0 13.0 0.00 0.02 0.02 66 990.1
20260505211522 69 250 3.0 13.0 0.00 0.02 0.02 66 990.7
20260505211023 69 131 2.0 13.0 0.00 0.02 0.02 65 990.6
20260505210534 70 39 4.0 11.0 0.00 0.02 0.02 64 990.4
20260505210021 71 304 2.0 12.0 0.00 0.02 0.02 62 990.2
20260505205547 72 229 4.0 12.0 0.00 0.02 0.02 60 990.1
20260505205029 72 250 4.0 7.0 0.00 0.02 0.02 58 990.0
20260505204558 73 136 2.0 5.0 0.00 0.02 0.02 60 989.7
20260505204046 73 274 1.0 5.0 0.01 0.02 0.02 61 989.2
20260505203555 73 278 1.0 4.0 0.01 0.02 0.02 64 989.0
20260505203041 72 191 2.0 4.0 0.02 0.02 0.02 66 989.0
20260505202549 70 343 1.0 4.0 0.02 0.02 0.02 67 989.0
20260505202057 69 247 0.0 2.0 0.02 0.02 0.02 76 988.9
20260505201545 67 266 0.0 2.0 0.02 0.02 0.02 75 988.9
20260505201048 66 96 0.0 2.0 0.02 0.02 0.02 78 988.9
20260505200601 65 125 0.0 4.0 0.02 0.02 0.02 76 988.8
20260505200047 66 61 1.0 5.0 0.02 0.02 0.02 75 989.1
20260505195555 66 300 1.0 11.0 0.02 0.02 0.02 75 989.9
20260505195043 66 304 3.0 12.0 0.02 0.02 0.02 74 990.3
20260505194528 67 227 4.0 12.0 0.02 0.02 0.02 74 990.4
20260505194039 68 197 4.0 11.0 0.01 0.01 0.01 69 990.4
20260505193528 69 214 4.0 11.0 0.01 0.01 0.01 65 990.2
20260505193024 70 97 2.0 10.0 0.00 0.00 0.00 61 990.0
20260505192535 71 153 2.0 14.0 0.00 0.00 0.00 59 989.3
20260505192044 73 272 4.0 19.0 0.00 0.00 0.00 57 989.5
20260505191525 76 262 5.0 19.0 0.00 0.00 0.00 49 989.5
20260505191034 79 104 4.0 14.0 0.00 0.00 0.00 40 988.3
20260505190526 79 293 4.0 9.0 0.00 0.00 0.00 37 987.8
20260505190034 79 279 2.0 8.0 0.00 0.00 0.00 39 987.5
20260505185543 79 232 3.0 8.0 0.00 0.00 0.00 42 987.5
20260505185022 78 223 2.0 9.0 0.00 0.00 0.00 42 987.4
20260505184530 79 246 1.0 9.0 0.00 0.00 0.00 45 987.5
20260505184020 79 338 2.0 7.0 0.00 0.00 0.00 45 987.4
20260505183531 79 227 1.0 12.0 0.00 0.00 0.00 45 987.4
20260505183031 79 148 2.0 12.0 0.00 0.00 0.00 44 987.4
20260505182520 79 309 1.0 8.0 0.00 0.00 0.00 44 987.5
20260505182046 80 135 2.0 10.0 0.00 0.00 0.00 42 987.6
20260505181527 81 155 1.0 9.0 0.00 0.00 0.00 41 987.6
20260505181038 82 261 2.0 9.0 0.00 0.00 0.00 43 987.5
20260505180550 81 218 2.0 9.0 0.00 0.00 0.00 45 987.5
20260505180029 81 260 1.0 9.0 0.00 0.00 0.00 41 987.7
20260505175539 82 261 2.0 7.0 0.00 0.00 0.00 42 987.8
20260505175048 81 212 2.0 5.0 0.00 0.00 0.00 43 987.9
20260505174534 81 44 1.0 7.0 0.00 0.00 0.00 43 988.1
20260505174031 81 238 2.0 9.0 0.00 0.00 0.00 41 988.1
20260505173522 82 307 2.0 10.0 0.00 0.00 0.00 40 988.3
20260505173032 81 88 2.0 14.0 0.00 0.00 0.00 41 988.4
20260505172534 82 223 4.0 14.0 0.00 0.00 0.00 40 988.3
20260505172023 83 214 4.0 12.0 0.00 0.00 0.00 39 988.3
20260505171524 82 320 1.0 8.0 0.00 0.00 0.00 45 988.4
20260505171035 82 226 3.0 12.0 0.00 0.00 0.00 41 988.6